Meteo Giornale » Osservazioni meteo Irlanda » Dublino AP
ore: 22:30 - Osservazioni Meteo Dublino AP
Lat. 53° 26' N Lon. 6° 15' W Alt. 68 metri s.l.m.
16 °C
Poco Nuvoloso
Temp. 24 Ore
12 °C
20 °C
Sud-Ovest
7.4 Km/h
Dew point 13 °C
Umidità 82 %
Visibilità 10 Km
Il sole sorge alle ore 06:34
Il sole tramonta alle ore 20:15
| Data e Ora | Cielo e Fenomeni | T °C | DP °C | Um. % | Pres. hPa | Vis. km | Vento km/h | |
|---|---|---|---|---|---|---|---|---|
| Oggi h: 22:30 | Poco Nuvoloso | 16 | 13 | 82 | 1016 | 10 | SO 7.4 | |
| Oggi h: 22:00 | Poco Nuvoloso | 16 | 13 | 82 | 1016 | 10 | O/SO 7.4 | |
| Oggi h: 21:30 | Poco Nuvoloso | 16 | 13 | 82 | 1016 | 10 | O/SO 7.4 | |
| Oggi h: 21:00 | Poco Nuvoloso | 16 | 13 | 82 | 1016 | 10 | SO 9.3 | |
| Oggi h: 20:30 | Pioggia nelle vicinanze | 16 | 14 | 87 | 1016 | 10 | O/SO 11.1 | |
| Oggi h: 20:00 | Pioggia | 17 | 14 | 82 | 1016 | 10 | O/NO 16.7 | |
| Oggi h: 19:30 | Pioggia nelle vicinanze | 19 | 12 | 63 | 1016 | 10 | O/SO 9.3 | |
| Oggi h: 19:00 | Poco Nuvoloso | 19 | 12 | 63 | 1016 | 10 | O 7.4 | |
| Oggi h: 18:30 | Poco Nuvoloso | 20 | 12 | 59 | 1016 | 10 | O 14.8 | |
| Oggi h: 18:00 | Poco Nuvoloso | 20 | 13 | 64 | 1016 | 10 | O/SO 11.1 | |
| Oggi h: 17:30 | Poco Nuvoloso | 19 | 12 | 63 | 1016 | 10 | O/SO 13 | |
| Oggi h: 17:00 | Poco Nuvoloso | 19 | 12 | 63 | 1016 | 10 | O/SO 13 | |
| Oggi h: 16:30 | Poco Nuvoloso | 20 | 12 | 59 | 1016 | 10 | O 14.8 | |
| Oggi h: 16:00 | Poco Nuvoloso | 20 | 11 | 56 | 1016 | 10 | O 16.7 | |
| Oggi h: 15:30 | Poco Nuvoloso | 20 | 11 | 56 | 1016 | 10 | O 14.8 | |
| Oggi h: 15:00 | Nuvoloso | 20 | 11 | 56 | 1016 | 10 | O/SO 20.3 | |
| Oggi h: 14:30 | Nuvoloso | 20 | 12 | 59 | 1016 | 10 | O/SO 18.5 | |
| Oggi h: 14:00 | Nuvoloso | 20 | 12 | 59 | 1016 | 10 | O/SO 16.7 | |
| Oggi h: 13:30 | Nuvoloso | 19 | 12 | 63 | 1016 | 10 | SO 18.5 | |
| Oggi h: 13:00 | Molto Nuvoloso | 19 | 12 | 63 | 1017 | 10 | O/SO 18.5 | |
| Oggi h: 12:30 | Molto Nuvoloso | 18 | 12 | 67 | 1017 | 10 | O/SO 16.7 | |
| Oggi h: 12:00 | Nuvoloso | 18 | 12 | 67 | 1016 | 10 | O/SO 14.8 | |
| Oggi h: 11:30 | Poco Nuvoloso | 18 | 12 | 67 | 1017 | 10 | O/SO 14.8 | |
| Oggi h: 11:00 | Poco Nuvoloso | 17 | 12 | 72 | 1017 | 10 | SO 18.5 | |
| Oggi h: 10:30 | Poco Nuvoloso | 17 | 12 | 72 | 1017 | 10 | O/SO 18.5 | |
| Oggi h: 10:00 | Poco Nuvoloso | 16 | 12 | 77 | 1016 | 10 | O/SO 14.8 | |
| Oggi h: 09:30 | Poco Nuvoloso | 16 | 12 | 77 | 1016 | 10 | SO 20.3 | |
| Oggi h: 09:00 | Poco Nuvoloso | 15 | 12 | 82 | 1016 | 10 | O/SO 14.8 | |
| Oggi h: 08:30 | Poco Nuvoloso | 15 | 11 | 76 | 1016 | 10 | O/SO 14.8 | |
| Oggi h: 08:00 | Poco Nuvoloso | 14 | 11 | 82 | 1016 | 10 | O/SO 14.8 | |
| Oggi h: 07:30 | Poco Nuvoloso | 14 | 11 | 82 | 1016 | 10 | SO 14.8 | |
| Oggi h: 07:00 | Poco Nuvoloso | 14 | 11 | 82 | 1016 | 10 | SO 13 | |
| Oggi h: 06:30 | Poco Nuvoloso | 14 | 11 | 82 | 1016 | 10 | SO 14.8 | |
| Oggi h: 06:00 | Nuvoloso | 14 | 10 | 76 | 1016 | 10 | SO 14.8 | |
| Oggi h: 05:30 | Poco Nuvoloso | 14 | 11 | 82 | 1016 | 10 | SO 14.8 | |
| Oggi h: 05:00 | Poco Nuvoloso | 14 | 11 | 82 | 1016 | 10 | SO 14.8 | |
| Oggi h: 04:30 | Poco Nuvoloso | 14 | 10 | 76 | 1016 | 10 | SO 13 | |
| Oggi h: 04:00 | Poco Nuvoloso | 13 | 10 | 81 | 1017 | 10 | SO 11.1 | |
| Oggi h: 03:30 | Sereno | 13 | 10 | 81 | 1017 | 10 | S/SO 11.1 | |
| Oggi h: 03:00 | Sereno | 13 | 10 | 81 | 1017 | 10 | S/SO 9.3 | |
| Oggi h: 02:30 | Sereno | 12 | 10 | 87 | 1017 | 10 | S/SO 11.1 | |
| Oggi h: 02:00 | Sereno | 13 | 10 | 81 | 1017 | 10 | SO 13 | |
| Oggi h: 01:30 | Sereno | 13 | 10 | 81 | 1017 | 10 | SO 11.1 | |
| Oggi h: 01:00 | Sereno | 14 | 10 | 76 | 1017 | 10 | SO 11.1 | |
| Oggi h: 00:30 | Poco Nuvoloso | 14 | 10 | 76 | 1017 | 10 | SO 11.1 | |
| Oggi h: 00:00 | Poco Nuvoloso | 14 | 10 | 76 | 1017 | 10 | SO 11.1 | |



